TimeEST,TemperatureF,Dew PointF,Humidity,Sea Level PressureIn,VisibilityMPH,Wind Direction,Wind SpeedMPH,Gust SpeedMPH,PrecipitationIn,Events,Conditions,WindDirDegrees,DateUTC
12:15 AM,33.8,33.8,100,29.43,2.0,North,3.5,-,N/A,Rain,Light Rain,360,2013-01-30 05:15:00
12:36 AM,33.8,33.8,100,29.41,3.0,North,5.8,-,N/A,Rain,Rain,360,2013-01-30 05:36:00
12:56 AM,33.4,33.4,100,29.41,3.0,North,3.5,-,N/A,Rain,Rain,350,2013-01-30 05:56:00
1:15 AM,33.4,33.4,100,29.40,3.0,North,3.5,-,N/A,Rain,Light Rain,360,2013-01-30 06:15:00
1:36 AM,33.6,33.6,100,29.39,7.0,NNW,3.5,-,N/A,Rain,Rain,340,2013-01-30 06:36:00
1:56 AM,34.0,34.0,100,29.40,5.0,NNW,4.6,-,N/A,Rain,Light Rain,330,2013-01-30 06:56:00
2:15 AM,34.0,34.0,100,29.40,7.0,NNW,5.8,-,N/A,Rain,Light Rain,330,2013-01-30 07:15:00
2:36 AM,34.0,34.0,100,29.40,10.0,NW,5.8,-,N/A,Rain,Light Rain,320,2013-01-30 07:36:00
2:55 AM,34.0,34.0,100,29.39,10.0,NNW,5.8,-,N/A,Rain,Light Rain,340,2013-01-30 07:55:00
3:16 AM,34.0,34.0,100,29.37,10.0,NNW,6.9,-,N/A,Rain,Light Rain,340,2013-01-30 08:16:00
3:35 AM,33.8,33.8,100,29.36,10.0,NNW,5.8,-,N/A,Rain,Light Rain,340,2013-01-30 08:35:00
3:55 AM,33.8,33.8,100,29.35,10.0,NNW,4.6,-,N/A,Rain,Light Rain,340,2013-01-30 08:55:00
4:16 AM,34.0,34.0,100,29.33,7.0,NNW,3.5,-,N/A,Rain,Light Rain,340,2013-01-30 09:16:00
4:35 AM,34.3,34.3,100,29.35,7.0,NW,4.6,-,N/A,Rain,Light Rain,320,2013-01-30 09:35:00
4:56 AM,34.0,34.0,100,29.33,7.0,NW,5.8,-,N/A,Rain,Rain,320,2013-01-30 09:56:00
5:16 AM,34.0,34.0,100,29.33,7.0,NW,5.8,-,N/A,Rain,Light Rain,310,2013-01-30 10:16:00
5:35 AM,34.0,34.0,100,29.33,7.0,NW,5.8,-,N/A,Rain,Light Rain,310,2013-01-30 10:35:00
5:56 AM,33.8,33.8,100,29.33,7.0,NW,3.5,-,N/A,,Drizzle,310,2013-01-30 10:56:00
6:15 AM,33.3,33.3,100,29.29,7.0,Calm,Calm,-,N/A,Rain,Rain,0,2013-01-30 11:15:00
6:36 AM,33.8,33.8,100,29.31,10.0,NW,3.5,-,N/A,,Overcast,310,2013-01-30 11:36:00
6:56 AM,33.3,33.3,100,29.32,10.0,WNW,6.9,-,N/A,,Overcast,300,2013-01-30 11:56:00
7:15 AM,33.3,33.3,100,29.31,10.0,NW,5.8,-,N/A,,Overcast,320,2013-01-30 12:15:00
7:36 AM,33.4,33.4,100,29.30,10.0,NW,4.6,-,N/A,,Overcast,320,2013-01-30 12:36:00
7:56 AM,33.3,33.3,100,29.28,10.0,NNW,3.5,-,N/A,,Overcast,340,2013-01-30 12:56:00
8:16 AM,33.3,33.3,100,29.28,10.0,North,3.5,-,N/A,,Light Drizzle,350,2013-01-30 13:16:00
8:35 AM,33.8,33.8,100,29.30,5.0,NW,4.6,-,N/A,,Overcast,320,2013-01-30 13:35:00
8:56 AM,33.8,33.8,100,29.31,7.0,NW,8.1,-,N/A,,Overcast,310,2013-01-30 13:56:00
9:16 AM,33.4,33.4,100,29.30,2.0,NW,5.8,-,N/A,Rain,Light Rain,320,2013-01-30 14:16:00
9:35 AM,32.9,32.9,100,29.30,2.5,NW,4.6,-,N/A,Snow,Light Snow,320,2013-01-30 14:35:00
9:56 AM,33.1,33.1,100,29.30,3.0,NNW,4.6,-,N/A,Snow,Light Snow,340,2013-01-30 14:56:00
10:15 AM,33.1,33.1,100,29.29,4.0,North,5.8,-,N/A,Snow,Light Snow,350,2013-01-30 15:15:00
10:36 AM,33.4,33.4,100,29.31,7.0,North,6.9,-,N/A,Snow,Light Snow,350,2013-01-30 15:36:00
10:56 AM,33.6,33.6,100,29.29,10.0,North,5.8,-,N/A,Rain,Light Rain,10,2013-01-30 15:56:00
11:15 AM,33.3,33.3,100,29.28,10.0,North,6.9,-,N/A,Rain,Rain,350,2013-01-30 16:15:00
11:36 AM,33.1,33.1,100,29.28,7.0,North,6.9,-,N/A,Snow,Light Snow,360,2013-01-30 16:36:00
11:55 AM,33.3,33.3,100,29.28,5.0,North,5.8,-,N/A,Snow,Light Snow,10,2013-01-30 16:55:00
12:16 PM,32.9,32.9,100,29.26,3.0,North,3.5,-,N/A,Snow,Light Snow,10,2013-01-30 17:16:00
12:36 PM,33.1,33.1,100,29.26,2.5,North,4.6,-,N/A,Snow,Light Snow,360,2013-01-30 17:36:00
12:55 PM,32.9,32.9,100,29.25,2.5,NNW,4.6,-,N/A,Snow,Light Snow,330,2013-01-30 17:55:00
1:16 PM,32.5,32.5,100,29.23,2.0,North,6.9,-,N/A,Rain,Light Rain,10,2013-01-30 18:16:00
1:36 PM,32.5,32.5,100,29.21,3.0,NNE,5.8,-,N/A,Rain,Rain,20,2013-01-30 18:36:00
1:56 PM,32.2,32.2,100,29.20,2.0,North,8.1,-,N/A,Snow,Light Snow,360,2013-01-30 18:56:00
2:15 PM,32.0,32.0,100,29.20,1.2,North,6.9,-,N/A,Snow,Light Snow,10,2013-01-30 19:15:00
2:36 PM,32.0,32.0,100,29.16,1.8,NNE,5.8,-,N/A,Snow,Light Snow,20,2013-01-30 19:36:00
2:56 PM,31.8,31.8,100,29.15,0.8,NE,8.1,17.3,N/A,Snow,Light Snow,40,2013-01-30 19:56:00
3:16 PM,31.6,31.6,100,29.16,1.8,NE,8.1,-,N/A,Snow,Light Snow,50,2013-01-30 20:16:00
3:36 PM,31.5,31.1,99,29.14,1.2,NE,6.9,-,N/A,Snow,Light Snow,40,2013-01-30 20:36:00
3:55 PM,30.7,30.6,99,29.15,1.5,ENE,5.8,-,N/A,Snow,Light Snow,60,2013-01-30 20:55:00
4:16 PM,30.7,30.6,99,29.15,1.0,ENE,6.9,16.1,N/A,Snow,Light Snow,60,2013-01-30 21:16:00
4:35 PM,30.4,30.2,99,29.14,0.8,NE,5.8,-,N/A,Snow,Light Snow,40,2013-01-30 21:35:00
4:56 PM,29.7,29.7,100,29.13,0.5,NE,6.9,-,N/A,Snow,Light Snow,40,2013-01-30 21:56:00
5:16 PM,29.3,29.3,100,29.13,0.8,NNE,6.9,-,N/A,Snow,Light Snow,30,2013-01-30 22:16:00
5:35 PM,28.6,28.6,100,29.14,0.5,NNE,6.9,-,N/A,Snow,Snow,20,2013-01-30 22:35:00
5:56 PM,27.5,27.5,100,29.13,0.5,North,9.2,-,N/A,Snow,Snow,10,2013-01-30 22:56:00
6:16 PM,25.7,25.7,100,29.14,0.8,NNE,9.2,18.4,N/A,Snow,Snow,20,2013-01-30 23:16:00
6:35 PM,25.3,25.2,99,29.11,1.0,NNE,12.7,19.6,N/A,Snow,Light Snow,20,2013-01-30 23:35:00
6:56 PM,24.6,24.3,99,29.11,0.8,NNE,10.4,17.3,N/A,Snow,Snow,20,2013-01-30 23:56:00
7:15 PM,23.7,23.4,99,29.10,1.5,NNE,10.4,19.6,N/A,Snow,Light Snow,20,2013-01-31 00:15:00
7:36 PM,23.0,22.3,97,29.08,-9999.0,NNE,11.5,19.6,N/A,,Overcast,20,2013-01-31 00:36:00
7:55 PM,22.5,21.7,97,29.08,-9999.0,North,12.7,19.6,N/A,,Overcast,10,2013-01-31 00:55:00
8:16 PM,21.2,20.3,96,29.09,-9999.0,NNE,9.2,17.3,N/A,,Unknown,20,2013-01-31 01:16:00
8:36 PM,21.2,20.3,96,29.08,-9999.0,North,6.9,17.3,N/A,,Unknown,10,2013-01-31 01:36:00
8:55 PM,20.7,19.6,96,29.05,-9999.0,NNE,10.4,18.4,N/A,,Overcast,20,2013-01-31 01:55:00
9:16 PM,19.4,18.3,96,29.05,-9999.0,North,16.1,21.9,N/A,,Unknown,360,2013-01-31 02:16:00
9:36 PM,18.1,16.7,94,29.08,-9999.0,North,13.8,21.9,N/A,,Unknown,360,2013-01-31 02:36:00
9:55 PM,17.1,15.4,93,29.10,-9999.0,North,13.8,21.9,N/A,,Unknown,350,2013-01-31 02:55:00
10:16 PM,15.6,13.8,93,29.08,-9999.0,North,13.8,20.7,N/A,,Overcast,350,2013-01-31 03:16:00
10:36 PM,14.4,12.7,93,29.07,-9999.0,North,13.8,23.0,N/A,,Overcast,360,2013-01-31 03:36:00
10:55 PM,14.4,12.6,93,29.10,-9999.0,North,12.7,18.4,N/A,,Unknown,350,2013-01-31 03:55:00
11:16 PM,13.6,11.3,90,29.10,-9999.0,North,12.7,20.7,N/A,,Unknown,350,2013-01-31 04:16:00
11:36 PM,13.1,10.0,88,29.09,-9999.0,North,13.8,21.9,N/A,,Unknown,360,2013-01-31 04:36:00
11:55 PM,12.9,9.5,86,29.10,-9999.0,North,10.4,19.6,N/A,,Overcast,360,2013-01-31 04:55:00